Preview of NWS' New Version of Forecast
This preview is not operational and should not be used for support decisions.

Regional Weather Roundup (RWR)

Issued by National Weather Service (NWS)

                            
000
ASUS44 KMEG 170010
RWRTN 
TENNESSEE HOURLY STATE WEATHER ROUNDUP
NATIONAL WEATHER SERVICE MEMPHIS TN
700 PM CDT MON SEP 16 2019

TNZ002-004-019-021-049-052-054-088>092-170100-
WEST TENNESSEE
  
CITY           SKY/WX    TMP DP  RH WIND       PRES   REMARKS
MEMPHIS INTL   FAIR      90  68  48 NW7       30.00F HX  94           
NWS MEMPHIS      N/A     89 N/A N/A MISG        N/A                   
JACKSON        FAIR      84  70  62 CALM      30.02S                  
DYERSBURG      FAIR      85  71  63 CALM      30.02F HX  90           
SOMERVILLE     CLEAR     84  70  61 CALM      30.00S                  
UNION CITY     CLEAR     84  68  58 W3        30.00S                  
BOLIVAR        CLEAR     82  72  69 CALM      30.01S                  
PARIS          CLEAR     86  64  48 CALM      30.01S                  
HUNTINGDON     CLEAR     84  68  58 CALM      30.01S                  
LEXINGTON      CLEAR     86  66  51 NW6       30.00S                  
SELMER         CLEAR     81  73  78 CALM      30.01S                  
SAVANNAH       CLEAR     81  77  89 CALM      30.00S                  
$$

TNZ008-025-027-028-033-062-065-066-170100-
NORTH MIDDLE TENNESSEE
  
CITY           SKY/WX    TMP DP  RH WIND       PRES   REMARKS
NASHVILLE      FAIR      91  60  35 N7        30.01F HX  90           
DICKSON        CLEAR     84  63  48 CALM      30.02S                  
PORTLAND       CLEAR     81  70  69 CALM      30.01S                  
CLARKSVILLE    FAIR      88  66  48 W6        30.00F HX  90           
LEBANON        CLEAR     86  64  48 CALM      29.99S                  
SMYRNA         FAIR      86  67  52 CALM      30.02S                  
MURFREESBORO   CLEAR     90  61  37 CALM      29.99S                  
COOKEVILLE     CLEAR     79  68  69 CALM      30.03S                  
LIVINGSTON     CLEAR     82  63  51 W6        30.04S                  
CROSSVILLE     FAIR      80  61  52 W6        30.09S                  
ROCKWOOD       CLEAR     79  66  65 NW5       30.06S                  
$$

TNZ061-075-076-078-094-096-097-170100-
SOUTH MIDDLE TENNESSEE
  
CITY           SKY/WX    TMP DP  RH WIND       PRES   REMARKS
LAWRENCEBURG   CLEAR     84  64  51 CALM      30.02S                  
LEWISBURG      CLEAR     82  64  54 CALM      30.00S                  
FAYETTEVILLE   CLEAR     86  66  51 CALM      30.02S                  
TULLAHOMA      CLEAR     81  68  65 CALM      30.02F                  
WINCHESTER     CLEAR     88  61  40 N3        30.02S                  
MCMINNVILLE    CLEAR     82  64  54 CALM      30.03S                  
COLUMBIA       CLEAR     84  66  54 CALM      29.99S                  
SHELBYVILLE    CLEAR     84  64  51 CALM      30.01F                  
$$

TNZ017-018-042-046-047-170100-
NORTHEAST TENNESSEE
  
CITY           SKY/WX    TMP DP  RH WIND       PRES   REMARKS
TRI CITIES     FAIR      78  65  63 CALM      30.04S                  
ELIZABETHTON   FAIR      75  63  64 CALM      30.04S                  
GREENEVILLE    CLEAR     81  59  47 CALM      30.04F                  
$$

TNZ012-013-036-069-073-074-170100-
CENTRAL EAST TENNESSEE
  
CITY           SKY/WX    TMP DP  RH WIND       PRES   REMARKS
KNOXVILLE      FAIR      86  59  39 SE5       30.00F                  
OAK RIDGE      FAIR      87  62  43 CALM      30.02F                  
DOWNTOWN KNOXV CLEAR     79  68  69 CALM      30.01S                  
GATLINBURG     CLEAR     82  61  47 CALM      30.01S                  
MORRISTOWN     CLEAR     86  61  42 CALM      30.02F                  
JACKSBORO      CLEAR     81  68  65 CALM      30.05F                  
$$

TNZ083-085-099-170100-
SOUTHEAST TENNESSEE
  
CITY           SKY/WX    TMP DP  RH WIND       PRES   REMARKS
CHATTANOOGA    FAIR      89  62  40 NW6       30.00S                  
DAYTON         PTCLDY    84  63  48 CALM      29.99S                  
$$

SKY/WX REPORTED AS FAIR MEANS FEW OR NO CLOUDS BELOW
12 THOUSAND FEET.